contact:dominique.lefevre@mio.osupytheas.fr, maurice.libes@osupytheas.fr, didier.mallarino@osupytheas.fr
Project:EMSO http://www.emso-fr.org/EMSO-France
Depth: 2436.0 m
Title:EMSO Ligure Ouest : Data MII capteur OXYGEN
DateTime,Latitude,Longitude,Optode-Type,Optode_Serial,Oxygen,Saturation_Oxygen,Temperature
DateTime,Latitude,Longitude,Optode-Type,Optode_Serial,µmol.l-1,%,degC
2019-07-14T00:02:00,42.805,6.029,4330,1995,193.874,59.293,13.290
2019-07-14T00:05:00,42.805,6.029,4330,1995,193.838,59.282,13.291
2019-07-14T00:08:00,42.805,6.029,4330,1995,193.863,59.288,13.290
2019-07-14T00:11:00,42.805,6.029,4330,1995,193.873,59.292,13.290
2019-07-14T00:14:00,42.805,6.029,4330,1995,193.865,59.289,13.290
2019-07-14T00:17:00,42.805,6.029,4330,1995,193.854,59.285,13.290
2019-07-14T00:20:00,42.805,6.029,4330,1995,193.829,59.277,13.289
2019-07-14T00:23:00,42.805,6.029,4330,1995,193.916,59.305,13.290
2019-07-14T00:26:00,42.805,6.029,4330,1995,193.894,59.298,13.290
2019-07-14T00:29:00,42.805,6.029,4330,1995,193.923,59.307,13.290
2019-07-14T00:32:00,42.805,6.029,4330,1995,193.890,59.297,13.290
2019-07-14T00:35:00,42.805,6.029,4330,1995,193.844,59.283,13.290
2019-07-14T00:38:00,42.805,6.029,4330,1995,193.846,59.283,13.290
2019-07-14T00:41:00,42.805,6.029,4330,1995,193.850,59.284,13.290
2019-07-14T00:44:00,42.805,6.029,4330,1995,193.871,59.291,13.290
2019-07-14T00:47:00,42.805,6.029,4330,1995,193.854,59.285,13.290
2019-07-14T00:50:00,42.805,6.029,4330,1995,193.834,59.279,13.289
2019-07-14T00:53:00,42.805,6.029,4330,1995,193.832,59.279,13.290
2019-07-14T00:56:00,42.805,6.029,4330,1995,193.850,59.284,13.289
2019-07-14T01:02:00,42.805,6.029,4330,1995,193.819,59.272,13.288
2019-07-14T01:05:00,42.805,6.029,4330,1995,193.815,59.273,13.290
2019-07-14T01:08:00,42.805,6.029,4330,1995,193.796,59.268,13.290
2019-07-14T01:11:00,42.805,6.029,4330,1995,193.756,59.256,13.290
2019-07-14T01:14:00,42.805,6.029,4330,1995,193.780,59.263,13.290
2019-07-14T01:17:00,42.805,6.029,4330,1995,193.815,59.274,13.290
2019-07-14T01:20:00,42.805,6.029,4330,1995,193.767,59.260,13.291
2019-07-14T01:23:00,42.805,6.029,4330,1995,193.733,59.250,13.291
2019-07-14T01:26:00,42.805,6.029,4330,1995,193.787,59.266,13.290
2019-07-14T01:29:00,42.805,6.029,4330,1995,193.770,59.261,13.290
2019-07-14T01:32:00,42.805,6.029,4330,1995,193.808,59.272,13.290
2019-07-14T01:35:00,42.805,6.029,4330,1995,193.808,59.272,13.290
2019-07-14T01:38:00,42.805,6.029,4330,1995,193.761,59.257,13.289
2019-07-14T01:41:00,42.805,6.029,4330,1995,193.785,59.265,13.290
2019-07-14T01:44:00,42.805,6.029,4330,1995,193.721,59.245,13.290
2019-07-14T01:47:00,42.805,6.029,4330,1995,193.757,59.256,13.290
2019-07-14T01:50:00,42.805,6.029,4330,1995,193.802,59.269,13.289
2019-07-14T01:53:00,42.805,6.029,4330,1995,193.765,59.257,13.289
2019-07-14T01:56:00,42.805,6.029,4330,1995,193.794,59.267,13.290
2019-07-14T01:59:00,42.805,6.029,4330,1995,193.812,59.272,13.289
2019-07-14T02:02:00,42.805,6.029,4330,1995,193.802,59.269,13.289
2019-07-14T02:05:00,42.805,6.029,4330,1995,193.866,59.288,13.289
2019-07-14T02:08:00,42.805,6.029,4330,1995,193.830,59.277,13.289
2019-07-14T02:11:00,42.805,6.029,4330,1995,193.844,59.281,13.289
2019-07-14T02:14:00,42.805,6.029,4330,1995,193.841,59.280,13.288
2019-07-14T02:17:00,42.805,6.029,4330,1995,193.791,59.265,13.289
2019-07-14T02:20:00,42.805,6.029,4330,1995,193.764,59.257,13.289
2019-07-14T02:23:00,42.805,6.029,4330,1995,193.838,59.279,13.289
2019-07-14T02:26:00,42.805,6.029,4330,1995,193.787,59.263,13.288
2019-07-14T02:29:00,42.805,6.029,4330,1995,193.818,59.273,13.289
2019-07-14T02:32:00,42.805,6.029,4330,1995,193.872,59.289,13.288
2019-07-14T02:35:00,42.805,6.029,4330,1995,193.829,59.276,13.288
2019-07-14T02:38:00,42.805,6.029,4330,1995,193.791,59.265,13.288
2019-07-14T02:41:00,42.805,6.029,4330,1995,193.804,59.269,13.289
2019-07-14T02:44:00,42.805,6.029,4330,1995,193.828,59.276,13.289
2019-07-14T02:47:00,42.805,6.029,4330,1995,193.822,59.274,13.289
2019-07-14T02:50:00,42.805,6.029,4330,1995,193.787,59.264,13.289
2019-07-14T02:53:00,42.805,6.029,4330,1995,193.814,59.272,13.289
2019-07-14T02:56:00,42.805,6.029,4330,1995,193.845,59.282,13.289
2019-07-14T02:59:00,42.805,6.029,4330,1995,193.769,59.258,13.289
2019-07-14T03:02:00,42.805,6.029,4330,1995,193.833,59.278,13.289
2019-07-14T03:05:00,42.805,6.029,4330,1995,193.747,59.252,13.289
2019-07-14T03:08:00,42.805,6.029,4330,1995,193.811,59.271,13.289
2019-07-14T03:11:00,42.805,6.029,4330,1995,193.843,59.281,13.289
2019-07-14T03:14:00,42.805,6.029,4330,1995,193.820,59.274,13.289
2019-07-14T03:17:00,42.805,6.029,4330,1995,193.830,59.278,13.290
2019-07-14T03:20:00,42.805,6.029,4330,1995,193.809,59.272,13.290
2019-07-14T03:23:00,42.805,6.029,4330,1995,193.849,59.283,13.289
2019-07-14T03:26:00,42.805,6.029,4330,1995,193.890,59.296,13.289
2019-07-14T03:29:00,42.805,6.029,4330,1995,193.870,59.290,13.289
2019-07-14T03:38:00,42.805,6.029,4330,1995,193.830,59.275,13.287
2019-07-14T03:41:00,42.805,6.029,4330,1995,193.840,59.279,13.288
2019-07-14T03:44:00,42.805,6.029,4330,1995,193.862,59.287,13.289
2019-07-14T03:47:00,42.805,6.029,4330,1995,193.881,59.292,13.289
2019-07-14T03:50:00,42.805,6.029,4330,1995,193.862,59.287,13.289
2019-07-14T03:53:00,42.805,6.029,4330,1995,193.832,59.277,13.289
2019-07-14T03:56:00,42.805,6.029,4330,1995,193.806,59.270,13.289
2019-07-14T03:59:00,42.805,6.029,4330,1995,193.836,59.279,13.289
2019-07-14T04:02:00,42.805,6.029,4330,1995,193.835,59.279,13.289
2019-07-14T04:05:00,42.805,6.029,4330,1995,193.854,59.285,13.289
2019-07-14T04:08:00,42.805,6.029,4330,1995,193.883,59.294,13.289
2019-07-14T04:11:00,42.805,6.029,4330,1995,193.864,59.289,13.290
2019-07-14T04:14:00,42.805,6.029,4330,1995,193.896,59.298,13.289
2019-07-14T04:17:00,42.805,6.029,4330,1995,193.817,59.274,13.289
2019-07-14T04:20:00,42.805,6.029,4330,1995,193.859,59.287,13.290
2019-07-14T04:23:00,42.805,6.029,4330,1995,193.876,59.292,13.290
2019-07-14T04:26:00,42.805,6.029,4330,1995,193.827,59.277,13.290
2019-07-14T04:29:00,42.805,6.029,4330,1995,193.885,59.296,13.290
2019-07-14T04:32:00,42.805,6.029,4330,1995,193.807,59.272,13.290
2019-07-14T04:35:00,42.805,6.029,4330,1995,193.851,59.285,13.290
2019-07-14T04:38:00,42.805,6.029,4330,1995,193.889,59.297,13.290
2019-07-14T04:41:00,42.805,6.029,4330,1995,193.856,59.286,13.290
2019-07-14T04:44:00,42.805,6.029,4330,1995,193.894,59.298,13.290
2019-07-14T04:47:00,42.805,6.029,4330,1995,193.858,59.287,13.290
2019-07-14T04:50:00,42.805,6.029,4330,1995,193.891,59.297,13.290
2019-07-14T04:53:00,42.805,6.029,4330,1995,193.802,59.270,13.290
2019-07-14T04:56:00,42.805,6.029,4330,1995,193.773,59.261,13.290
2019-07-14T04:59:00,42.805,6.029,4330,1995,193.883,59.295,13.290
2019-07-14T05:02:00,42.805,6.029,4330,1995,193.826,59.277,13.290
2019-07-14T05:05:00,42.805,6.029,4330,1995,193.850,59.284,13.289
2019-07-14T05:08:00,42.805,6.029,4330,1995,193.844,59.282,13.289
2019-07-14T05:11:00,42.805,6.029,4330,1995,193.807,59.270,13.289
2019-07-14T05:14:00,42.805,6.029,4330,1995,193.796,59.267,13.289
2019-07-14T05:17:00,42.805,6.029,4330,1995,193.803,59.269,13.289
2019-07-14T05:20:00,42.805,6.029,4330,1995,193.728,59.246,13.289
2019-07-14T05:23:00,42.805,6.029,4330,1995,193.781,59.262,13.289
2019-07-14T05:26:00,42.805,6.029,4330,1995,193.806,59.270,13.289
2019-07-14T05:29:00,42.805,6.029,4330,1995,193.804,59.269,13.289
2019-07-14T05:32:00,42.805,6.029,4330,1995,193.824,59.275,13.289
2019-07-14T05:35:00,42.805,6.029,4330,1995,193.740,59.249,13.289
2019-07-14T05:38:00,42.805,6.029,4330,1995,193.781,59.262,13.289
2019-07-14T05:41:00,42.805,6.029,4330,1995,193.807,59.269,13.288
2019-07-14T05:44:00,42.805,6.029,4330,1995,193.755,59.254,13.289
2019-07-14T05:47:00,42.805,6.029,4330,1995,193.763,59.256,13.289
2019-07-14T05:50:00,42.805,6.029,4330,1995,193.728,59.246,13.289
2019-07-14T05:53:00,42.805,6.029,4330,1995,193.753,59.253,13.289
2019-07-14T05:56:00,42.805,6.029,4330,1995,193.718,59.242,13.288
2019-07-14T05:59:00,42.805,6.029,4330,1995,193.753,59.254,13.289
2019-07-14T06:02:00,42.805,6.029,4330,1995,193.721,59.244,13.289
2019-07-14T06:05:00,42.805,6.029,4330,1995,193.676,59.230,13.289
2019-07-14T06:11:00,42.805,6.029,4330,1995,193.755,59.252,13.288
2019-07-14T06:14:00,42.805,6.029,4330,1995,193.675,59.229,13.289
2019-07-14T06:17:00,42.805,6.029,4330,1995,193.703,59.239,13.290
2019-07-14T06:20:00,42.805,6.029,4330,1995,193.629,59.216,13.289
2019-07-14T06:23:00,42.805,6.029,4330,1995,193.603,59.208,13.289
2019-07-14T06:26:00,42.805,6.029,4330,1995,193.688,59.234,13.289
2019-07-14T06:29:00,42.805,6.029,4330,1995,193.701,59.237,13.289
2019-07-14T06:32:00,42.805,6.029,4330,1995,193.675,59.229,13.289
2019-07-14T06:35:00,42.805,6.029,4330,1995,193.689,59.234,13.289
2019-07-14T06:38:00,42.805,6.029,4330,1995,193.683,59.232,13.289
2019-07-14T06:41:00,42.805,6.029,4330,1995,193.712,59.241,13.289
2019-07-14T06:44:00,42.805,6.029,4330,1995,193.723,59.244,13.288
2019-07-14T06:47:00,42.805,6.029,4330,1995,193.683,59.232,13.289
2019-07-14T06:50:00,42.805,6.029,4330,1995,193.719,59.243,13.289
2019-07-14T06:53:00,42.805,6.029,4330,1995,193.725,59.245,13.289
2019-07-14T06:56:00,42.805,6.029,4330,1995,193.583,59.201,13.289
2019-07-14T06:59:00,42.805,6.029,4330,1995,193.669,59.228,13.289
2019-07-14T07:02:00,42.805,6.029,4330,1995,193.656,59.224,13.289
2019-07-14T07:05:00,42.805,6.029,4330,1995,193.533,59.187,13.290
2019-07-14T07:08:00,42.805,6.029,4330,1995,193.590,59.204,13.289
2019-07-14T07:11:00,42.805,6.029,4330,1995,193.663,59.227,13.289
2019-07-14T07:14:00,42.805,6.029,4330,1995,193.658,59.224,13.289
2019-07-14T07:17:00,42.805,6.029,4330,1995,193.694,59.236,13.289
2019-07-14T07:20:00,42.805,6.029,4330,1995,193.644,59.221,13.289
2019-07-14T07:23:00,42.805,6.029,4330,1995,193.607,59.210,13.290
2019-07-14T07:26:00,42.805,6.029,4330,1995,193.605,59.209,13.289
2019-07-14T07:29:00,42.805,6.029,4330,1995,193.672,59.229,13.289
2019-07-14T07:32:00,42.805,6.029,4330,1995,193.605,59.210,13.290
2019-07-14T07:35:00,42.805,6.029,4330,1995,193.511,59.181,13.290
2019-07-14T07:38:00,42.805,6.029,4330,1995,193.561,59.196,13.290
2019-07-14T07:41:00,42.805,6.029,4330,1995,193.570,59.199,13.290
2019-07-14T07:44:00,42.805,6.029,4330,1995,193.623,59.215,13.290
2019-07-14T07:47:00,42.805,6.029,4330,1995,193.647,59.223,13.290
2019-07-14T07:50:00,42.805,6.029,4330,1995,193.631,59.217,13.290
2019-07-14T07:53:00,42.805,6.029,4330,1995,193.608,59.211,13.290
2019-07-14T07:56:00,42.805,6.029,4330,1995,193.583,59.203,13.290
2019-07-14T07:59:00,42.805,6.029,4330,1995,193.586,59.204,13.291
2019-07-14T08:02:00,42.805,6.029,4330,1995,193.555,59.194,13.290
2019-07-14T08:05:00,42.805,6.029,4330,1995,193.633,59.218,13.290
2019-07-14T08:08:00,42.805,6.029,4330,1995,193.591,59.206,13.290
2019-07-14T08:11:00,42.805,6.029,4330,1995,193.596,59.207,13.290
2019-07-14T08:14:00,42.805,6.029,4330,1995,193.446,59.162,13.291
2019-07-14T08:17:00,42.805,6.029,4330,1995,193.379,59.142,13.291
2019-07-14T08:20:00,42.805,6.029,4330,1995,193.402,59.149,13.291
2019-07-14T08:23:00,42.805,6.029,4330,1995,193.341,59.130,13.291
2019-07-14T08:26:00,42.805,6.029,4330,1995,193.455,59.164,13.290
2019-07-14T08:29:00,42.805,6.029,4330,1995,193.447,59.162,13.290
2019-07-14T08:32:00,42.805,6.029,4330,1995,193.461,59.166,13.290
2019-07-14T08:35:00,42.805,6.029,4330,1995,193.407,59.149,13.290
2019-07-14T08:38:00,42.805,6.029,4330,1995,193.283,59.112,13.290
2019-07-14T08:41:00,42.805,6.029,4330,1995,193.231,59.095,13.290
2019-07-14T08:47:00,42.805,6.029,4330,1995,193.308,59.116,13.288
2019-07-14T08:50:00,42.805,6.029,4330,1995,193.306,59.118,13.290
2019-07-14T08:53:00,42.805,6.029,4330,1995,193.442,59.160,13.290
2019-07-14T08:56:00,42.805,6.029,4330,1995,193.415,59.152,13.290
2019-07-14T08:59:00,42.805,6.029,4330,1995,193.376,59.140,13.290
2019-07-14T09:02:00,42.805,6.029,4330,1995,193.385,59.143,13.290
2019-07-14T09:05:00,42.805,6.029,4330,1995,193.381,59.142,13.291
2019-07-14T09:08:00,42.805,6.029,4330,1995,193.389,59.145,13.291
2019-07-14T09:11:00,42.805,6.029,4330,1995,193.286,59.113,13.291
2019-07-14T09:14:00,42.805,6.029,4330,1995,193.241,59.099,13.291
2019-07-14T09:17:00,42.805,6.029,4330,1995,193.203,59.087,13.290
2019-07-14T09:20:00,42.805,6.029,4330,1995,193.242,59.099,13.290
2019-07-14T09:23:00,42.805,6.029,4330,1995,193.197,59.086,13.291
2019-07-14T09:26:00,42.805,6.029,4330,1995,193.202,59.086,13.290
2019-07-14T09:29:00,42.805,6.029,4330,1995,193.169,59.076,13.290
2019-07-14T09:32:00,42.805,6.029,4330,1995,193.163,59.074,13.290
2019-07-14T09:35:00,42.805,6.029,4330,1995,193.156,59.072,13.290
2019-07-14T09:38:00,42.805,6.029,4330,1995,193.105,59.056,13.289
2019-07-14T09:41:00,42.805,6.029,4330,1995,193.071,59.045,13.289
2019-07-14T09:44:00,42.805,6.029,4330,1995,193.137,59.066,13.290
2019-07-14T09:47:00,42.805,6.029,4330,1995,193.193,59.082,13.289
2019-07-14T09:50:00,42.805,6.029,4330,1995,193.261,59.104,13.289
2019-07-14T09:53:00,42.805,6.029,4330,1995,193.131,59.064,13.289
2019-07-14T09:56:00,42.805,6.029,4330,1995,193.060,59.042,13.289
2019-07-14T09:59:00,42.805,6.029,4330,1995,193.073,59.046,13.289
2019-07-14T10:02:00,42.805,6.029,4330,1995,193.039,59.035,13.289
2019-07-14T10:05:00,42.805,6.029,4330,1995,193.037,59.035,13.289
2019-07-14T10:08:00,42.805,6.029,4330,1995,193.096,59.053,13.289
2019-07-14T10:11:00,42.805,6.029,4330,1995,193.077,59.047,13.289
2019-07-14T10:14:00,42.805,6.029,4330,1995,193.160,59.072,13.289
2019-07-14T10:17:00,42.805,6.029,4330,1995,193.169,59.075,13.289
2019-07-14T10:20:00,42.805,6.029,4330,1995,193.328,59.123,13.289
2019-07-14T10:23:00,42.805,6.029,4330,1995,193.303,59.116,13.289
2019-07-14T10:26:00,42.805,6.029,4330,1995,193.225,59.092,13.289
2019-07-14T10:29:00,42.805,6.029,4330,1995,193.157,59.071,13.289
2019-07-14T10:32:00,42.805,6.029,4330,1995,193.243,59.098,13.289
2019-07-14T10:35:00,42.805,6.029,4330,1995,193.289,59.112,13.289
2019-07-14T10:38:00,42.805,6.029,4330,1995,193.365,59.135,13.289
2019-07-14T10:41:00,42.805,6.029,4330,1995,193.223,59.092,13.289
2019-07-14T10:44:00,42.805,6.029,4330,1995,193.294,59.114,13.289
2019-07-14T10:47:00,42.805,6.029,4330,1995,193.165,59.075,13.290
2019-07-14T10:50:00,42.805,6.029,4330,1995,193.115,59.060,13.290
2019-07-14T10:53:00,42.805,6.029,4330,1995,193.130,59.064,13.290
2019-07-14T10:56:00,42.805,6.029,4330,1995,193.003,59.026,13.290
2019-07-14T10:59:00,42.805,6.029,4330,1995,193.038,59.036,13.290
2019-07-14T11:02:00,42.805,6.029,4330,1995,192.960,59.013,13.290
2019-07-14T11:05:00,42.805,6.029,4330,1995,193.039,59.037,13.290
2019-07-14T11:08:00,42.805,6.029,4330,1995,193.077,59.048,13.290
2019-07-14T11:11:00,42.805,6.029,4330,1995,193.083,59.051,13.290
2019-07-14T11:14:00,42.805,6.029,4330,1995,193.102,59.056,13.290
2019-07-14T11:23:00,42.805,6.029,4330,1995,193.113,59.056,13.288
2019-07-14T11:26:00,42.805,6.029,4330,1995,193.163,59.073,13.289
2019-07-14T11:29:00,42.805,6.029,4330,1995,193.140,59.067,13.290
2019-07-14T11:32:00,42.805,6.029,4330,1995,193.137,59.066,13.290
2019-07-14T11:35:00,42.805,6.029,4330,1995,193.106,59.056,13.289
2019-07-14T11:38:00,42.805,6.029,4330,1995,193.136,59.066,13.290
2019-07-14T11:41:00,42.805,6.029,4330,1995,193.007,59.026,13.290
2019-07-14T11:44:00,42.805,6.029,4330,1995,192.914,58.999,13.290
2019-07-14T11:47:00,42.805,6.029,4330,1995,192.846,58.978,13.291
2019-07-14T11:50:00,42.805,6.029,4330,1995,192.898,58.995,13.291
2019-07-14T11:53:00,42.805,6.029,4330,1995,192.896,58.994,13.291
2019-07-14T11:56:00,42.805,6.029,4330,1995,192.874,58.987,13.290
2019-07-14T11:59:00,42.805,6.029,4330,1995,192.814,58.969,13.291
2019-07-14T12:02:00,42.805,6.029,4330,1995,192.863,58.984,13.291
2019-07-14T12:05:00,42.805,6.029,4330,1995,192.885,58.990,13.290
2019-07-14T12:08:00,42.805,6.029,4330,1995,193.020,59.031,13.290
2019-07-14T12:11:00,42.805,6.029,4330,1995,193.119,59.062,13.290
2019-07-14T12:14:00,42.805,6.029,4330,1995,193.080,59.050,13.291
2019-07-14T12:17:00,42.805,6.029,4330,1995,192.951,59.011,13.291
2019-07-14T12:20:00,42.805,6.029,4330,1995,193.002,59.026,13.291
2019-07-14T12:23:00,42.805,6.029,4330,1995,193.075,59.048,13.290
2019-07-14T12:26:00,42.805,6.029,4330,1995,193.073,59.048,13.291
2019-07-14T12:29:00,42.805,6.029,4330,1995,193.021,59.032,13.291
2019-07-14T12:32:00,42.805,6.029,4330,1995,192.991,59.023,13.291
2019-07-14T12:35:00,42.805,6.029,4330,1995,192.904,58.997,13.291
2019-07-14T12:38:00,42.805,6.029,4330,1995,192.899,58.994,13.290
2019-07-14T12:41:00,42.805,6.029,4330,1995,192.997,59.025,13.291
2019-07-14T12:44:00,42.805,6.029,4330,1995,192.987,59.021,13.290
2019-07-14T12:47:00,42.805,6.029,4330,1995,192.949,59.010,13.291
2019-07-14T12:50:00,42.805,6.029,4330,1995,192.835,58.975,13.290
2019-07-14T12:53:00,42.805,6.029,4330,1995,192.738,58.945,13.290
2019-07-14T12:56:00,42.805,6.029,4330,1995,193.028,59.033,13.290
2019-07-14T12:59:00,42.805,6.029,4330,1995,193.076,59.047,13.290
2019-07-14T13:02:00,42.805,6.029,4330,1995,193.095,59.053,13.289
2019-07-14T13:05:00,42.805,6.029,4330,1995,193.141,59.067,13.289
2019-07-14T13:08:00,42.805,6.029,4330,1995,193.126,59.062,13.289
2019-07-14T13:11:00,42.805,6.029,4330,1995,193.080,59.049,13.290
2019-07-14T13:14:00,42.805,6.029,4330,1995,193.001,59.024,13.289
2019-07-14T13:17:00,42.805,6.029,4330,1995,193.010,59.027,13.289
2019-07-14T13:20:00,42.805,6.029,4330,1995,192.896,58.992,13.289
2019-07-14T13:23:00,42.805,6.029,4330,1995,192.812,58.966,13.289
2019-07-14T13:26:00,42.805,6.029,4330,1995,192.735,58.943,13.289
2019-07-14T13:29:00,42.805,6.029,4330,1995,192.853,58.979,13.289
2019-07-14T13:32:00,42.805,6.029,4330,1995,192.984,59.018,13.289
2019-07-14T13:35:00,42.805,6.029,4330,1995,193.077,59.046,13.289
2019-07-14T13:37:59,42.805,6.029,4330,1995,193.159,59.072,13.289
2019-07-14T13:41:00,42.805,6.029,4330,1995,193.162,59.073,13.289
2019-07-14T13:43:59,42.805,6.029,4330,1995,192.877,58.987,13.290
2019-07-14T13:46:59,42.805,6.029,4330,1995,192.743,58.946,13.290
2019-07-14T13:50:00,42.805,6.029,4330,1995,192.790,58.960,13.290
2019-07-14T13:56:00,42.805,6.029,4330,1995,192.869,58.985,13.290
2019-07-14T13:58:59,42.805,6.029,4330,1995,192.890,58.990,13.289
2019-07-14T14:01:59,42.805,6.029,4330,1995,192.895,58.992,13.290
2019-07-14T14:04:59,42.805,6.029,4330,1995,192.819,58.969,13.290
2019-07-14T14:07:59,42.805,6.029,4330,1995,192.732,58.942,13.290
2019-07-14T14:10:59,42.805,6.029,4330,1995,192.770,58.953,13.289
2019-07-14T14:13:59,42.805,6.029,4330,1995,192.901,58.994,13.289
2019-07-14T14:16:59,42.805,6.029,4330,1995,192.697,58.931,13.289
2019-07-14T14:19:59,42.805,6.029,4330,1995,192.620,58.909,13.290
2019-07-14T14:22:59,42.805,6.029,4330,1995,192.772,58.954,13.289
2019-07-14T14:25:59,42.805,6.029,4330,1995,192.720,58.938,13.289
2019-07-14T14:28:59,42.805,6.029,4330,1995,192.631,58.911,13.289
2019-07-14T14:31:59,42.805,6.029,4330,1995,192.681,58.926,13.289
2019-07-14T14:34:59,42.805,6.029,4330,1995,192.767,58.952,13.289
2019-07-14T14:37:59,42.805,6.029,4330,1995,192.716,58.937,13.289
2019-07-14T14:40:59,42.805,6.029,4330,1995,192.634,58.912,13.289
2019-07-14T14:43:59,42.805,6.029,4330,1995,192.690,58.930,13.290
2019-07-14T14:46:59,42.805,6.029,4330,1995,192.590,58.899,13.290
2019-07-14T14:49:59,42.805,6.029,4330,1995,192.590,58.899,13.290
2019-07-14T14:52:59,42.805,6.029,4330,1995,192.524,58.879,13.290
2019-07-14T14:55:59,42.805,6.029,4330,1995,192.545,58.885,13.290
2019-07-14T14:58:59,42.805,6.029,4330,1995,192.582,58.896,13.290
2019-07-14T15:01:59,42.805,6.029,4330,1995,192.566,58.891,13.289
2019-07-14T15:04:59,42.805,6.029,4330,1995,192.599,58.902,13.290
2019-07-14T15:07:59,42.805,6.029,4330,1995,192.650,58.918,13.290
2019-07-14T15:10:59,42.805,6.029,4330,1995,192.660,58.920,13.290
2019-07-14T15:13:59,42.805,6.029,4330,1995,192.663,58.922,13.290
2019-07-14T15:16:59,42.805,6.029,4330,1995,192.654,58.919,13.290
2019-07-14T15:19:59,42.805,6.029,4330,1995,192.605,58.904,13.290
2019-07-14T15:22:59,42.805,6.029,4330,1995,192.536,58.883,13.290
2019-07-14T15:25:59,42.805,6.029,4330,1995,192.581,58.898,13.291
2019-07-14T15:28:59,42.805,6.029,4330,1995,192.581,58.898,13.291
2019-07-14T15:31:59,42.805,6.029,4330,1995,192.555,58.890,13.291
2019-07-14T15:34:59,42.805,6.029,4330,1995,192.602,58.904,13.291
2019-07-14T15:37:59,42.805,6.029,4330,1995,192.643,58.917,13.291
2019-07-14T15:40:59,42.805,6.029,4330,1995,192.623,58.910,13.291
2019-07-14T15:43:59,42.805,6.029,4330,1995,192.519,58.878,13.291
2019-07-14T15:46:59,42.805,6.029,4330,1995,192.564,58.892,13.291
2019-07-14T15:49:59,42.805,6.029,4330,1995,192.552,58.889,13.291
2019-07-14T15:52:59,42.805,6.029,4330,1995,192.615,58.908,13.291
2019-07-14T15:55:59,42.805,6.029,4330,1995,192.548,58.888,13.291
2019-07-14T15:58:59,42.805,6.029,4330,1995,192.585,58.899,13.291
2019-07-14T16:01:59,42.805,6.029,4330,1995,192.600,58.904,13.291
2019-07-14T16:04:59,42.805,6.029,4330,1995,192.510,58.877,13.291
2019-07-14T16:07:59,42.805,6.029,4330,1995,192.484,58.868,13.291
2019-07-14T16:10:59,42.805,6.029,4330,1995,192.545,58.887,13.291
2019-07-14T16:13:59,42.805,6.029,4330,1995,192.568,58.894,13.291
2019-07-14T16:16:59,42.805,6.029,4330,1995,192.625,58.910,13.290
2019-07-14T16:19:59,42.805,6.029,4330,1995,192.543,58.885,13.290
2019-07-14T16:22:59,42.805,6.029,4330,1995,192.590,58.900,13.290
2019-07-14T16:25:59,42.805,6.029,4330,1995,192.686,58.928,13.290
2019-07-14T16:31:59,42.805,6.029,4330,1995,192.546,58.884,13.288
2019-07-14T16:34:59,42.805,6.029,4330,1995,192.517,58.878,13.291
2019-07-14T16:37:59,42.805,6.029,4330,1995,192.549,58.889,13.292
2019-07-14T16:40:59,42.805,6.029,4330,1995,192.540,58.885,13.291
2019-07-14T16:43:59,42.805,6.029,4330,1995,192.504,58.874,13.291
2019-07-14T16:46:59,42.805,6.029,4330,1995,192.589,58.901,13.291
2019-07-14T16:49:59,42.805,6.029,4330,1995,192.749,58.949,13.291
2019-07-14T16:52:59,42.805,6.029,4330,1995,192.507,58.876,13.291
2019-07-14T16:55:59,42.805,6.029,4330,1995,192.518,58.878,13.291
2019-07-14T16:58:59,42.805,6.029,4330,1995,192.500,58.873,13.291
2019-07-14T17:01:59,42.805,6.029,4330,1995,192.595,58.902,13.291
2019-07-14T17:04:59,42.805,6.029,4330,1995,192.569,58.894,13.291
2019-07-14T17:07:59,42.805,6.029,4330,1995,192.501,58.873,13.291
2019-07-14T17:10:59,42.805,6.029,4330,1995,192.434,58.852,13.291
2019-07-14T17:13:59,42.805,6.029,4330,1995,192.430,58.851,13.291
2019-07-14T17:16:59,42.805,6.029,4330,1995,192.438,58.853,13.290
2019-07-14T17:19:59,42.805,6.029,4330,1995,192.429,58.850,13.290
2019-07-14T17:22:59,42.805,6.029,4330,1995,192.445,58.855,13.290
2019-07-14T17:25:59,42.805,6.029,4330,1995,192.438,58.853,13.290
2019-07-14T17:28:59,42.805,6.029,4330,1995,192.508,58.874,13.290
2019-07-14T17:31:59,42.805,6.029,4330,1995,192.698,58.932,13.289
2019-07-14T17:34:59,42.805,6.029,4330,1995,192.616,58.907,13.290
2019-07-14T17:37:59,42.805,6.029,4330,1995,192.644,58.915,13.290
2019-07-14T17:40:59,42.805,6.029,4330,1995,192.613,58.906,13.290
2019-07-14T17:43:59,42.805,6.029,4330,1995,192.570,58.892,13.289
2019-07-14T17:46:59,42.805,6.029,4330,1995,192.744,58.945,13.289
2019-07-14T17:49:59,42.805,6.029,4330,1995,192.742,58.945,13.289
2019-07-14T17:52:59,42.805,6.029,4330,1995,192.608,58.904,13.290
2019-07-14T17:55:59,42.805,6.029,4330,1995,192.574,58.894,13.290
2019-07-14T17:58:59,42.805,6.029,4330,1995,192.605,58.903,13.289
2019-07-14T18:01:59,42.805,6.029,4330,1995,192.620,58.908,13.289
2019-07-14T18:04:59,42.805,6.029,4330,1995,192.575,58.894,13.289
2019-07-14T18:07:59,42.805,6.029,4330,1995,192.546,58.885,13.289
2019-07-14T18:10:59,42.805,6.029,4330,1995,192.456,58.858,13.290
2019-07-14T18:13:59,42.805,6.029,4330,1995,192.416,58.846,13.290
2019-07-14T18:16:59,42.805,6.029,4330,1995,192.412,58.844,13.290
2019-07-14T18:19:59,42.805,6.029,4330,1995,192.418,58.847,13.290
2019-07-14T18:22:59,42.805,6.029,4330,1995,192.406,58.843,13.290
2019-07-14T18:25:59,42.805,6.029,4330,1995,192.414,58.846,13.290
2019-07-14T18:28:59,42.805,6.029,4330,1995,192.352,58.827,13.290
2019-07-14T18:31:59,42.805,6.029,4330,1995,192.352,58.827,13.290
2019-07-14T18:34:59,42.805,6.029,4330,1995,192.325,58.819,13.291